Location: Chantarel
(45.1638°N, 1.7873°E)
Time: 07:09:22
(UTC+00:00)

SeaSat 1 - Pass Details

Date: 03 March 2021
Orbit: 744 x 748 km, 108.0° (Epoch: 10 April)

Event Time Altitude Azimuth Distance (km) Brightness Sun altitude
Rises 19:34:19 0° 23° (NNE) 3,201 5.6 -20.3°
Reaches altitude 10° 19:36:37 10° 19° (NNE) 2,274 4.9 -20.7°
Maximum altitude 19:41:26 54° 303° (WNW) 911 3.2 -21.6°
Drops below altitude 10° 19:46:13 10° 227° (SW) 2,261 5.3 -22.4°
Sets 19:48:30 0° 223° (SW) 3,181 6.1 -22.8°
